{"data":{"norad_id":64609,"intl_designator":"2025-137R","name":"STARLINK-34513","alt_names":[],"object_type":"PAYLOAD","status":"ACTIVE","operator":null,"country":"US","launch_date":"2025-06-25","launch_site_code":"AFETR","launch_vehicle":null,"mission":null,"orbit_class":"UNKNOWN","rcs_meters":null,"size_class":null,"mass_kg":null,"dimensions":null,"purposes":["comms"],"wikipedia_slug":null,"has_3d_model":false,"image_url":null,"decayed_at":null,"tle_current":{"epoch":"2026-09-20T03:59:33.022752Z","epoch_age_seconds":160186,"freshness":"FRESH","line1":"1 64609U 25137R   26263.16635443  .00029185  00000+0  87172-3 0  9996","line2":"2 64609  53.1572 149.5369 0001706  41.0645 319.0486 15.34393083 70637","mean_motion":15.34393083,"eccentricity":0.0001706,"inclination_deg":53.1572,"raan_deg":149.5369,"arg_perigee_deg":41.0645,"mean_anomaly_deg":319.0486,"bstar":0.00087172,"rev_number":7063,"period_min":93.848181144336,"perigee_km":461.55674821371,"apogee_km":463.89084991835,"semimajor_km":6840.860799066,"source":"CELESTRAK","updated_at":"2026-09-21T09:00:35.394054Z"}}}